Total_Precipitation_Accumulation
0.00 0.00 0.03 0.08 0.16 0.28 0.37 0.19 0.06 0.03 0.01 0.01 0.01 0.01 0.00 0.00 0.01 0.04 0.01 0.00 0.00 0.00 0.00 0.00 0.00 0.00 0.00 0.00 0.00 0.00 0.00 0.00 0.01 0.01 0.01 0.00 0.00 0.00 0.01 0.00 0.00 0.01 0.01 0.01 0.01 0.01 0.01 0.01 0.01
0.00 0.00 0.02 0.07 0.18 0.28 0.31 0.13 0.05 0.03 0.01 0.01 0.01 0.00 0.00 0.00 0.00 0.00 0.00 0.00 0.00 0.00 0.00 0.00 0.00 0.00 0.00 0.00 0.00 0.00 0.00 0.01 0.01 0.01 0.01 0.01 0.01 0.01 0.01 0.01 0.00 0.01 0.01 0.02 0.02 0.02 0.01 0.01 0.00
0.00 0.00 0.01 0.03 0.11 0.24 0.37 0.14 0.07 0.05 0.03 0.01 0.01 0.00 0.00 0.00 0.00 0.00 0.00 0.00 0.00 0.00 0.00 0.00 0.00 0.00 0.00 0.00 0.00 0.00 0.00 0.01 0.01 0.01 0.01 0.01 0.01 0.01 0.01 0.01 0.01 0.02 0.02 0.03 0.03 0.02 0.02 0.01 0.00
0.00 0.00 0.00 0.01 0.03 0.08 0.18 0.16 0.10 0.09 0.06 0.03 0.01 0.00 0.00 0.00 0.00 0.00 0.00 0.00 0.00 0.00 0.00 0.00 0.00 0.00 0.00 0.00 0.00 0.00 0.00 0.00 0.01 0.01 0.01 0.01 0.01 0.02 0.02 0.02 0.03 0.03 0.03 0.04 0.03 0.03 0.03 0.02 0.01
0.00 0.00 0.00 0.00 0.01 0.02 0.05 0.07 0.12 0.12 0.06 0.03 0.02 0.01 0.01 0.00 0.00 0.00 0.00 0.00 0.00 0.00 0.00 0.00 0.00 0.00 0.00 0.00 0.00 0.00 0.00 0.00 0.01 0.01 0.01 0.01 0.02 0.02 0.03 0.02 0.03 0.03 0.04 0.04 0.04 0.03 0.03 0.02 0.01
0.00 0.00 0.00 0.00 0.01 0.01 0.03 0.05 0.12 0.14 0.09 0.05 0.06 0.03 0.01 0.00 0.01 0.00 0.00 0.00 0.00 0.00 0.00 0.01 0.01 0.01 0.01 0.00 0.00 0.00 0.00 0.01 0.01 0.01 0.01 0.01 0.01 0.01 0.02 0.02 0.02 0.03 0.03 0.04 0.04 0.04 0.03 0.03 0.02
0.00 0.00 0.00 0.00 0.00 0.01 0.03 0.05 0.08 0.10 0.11 0.10 0.13 0.11 0.06 0.04 0.01 0.01 0.01 0.01 0.00 0.00 0.00 0.01 0.01 0.01 0.01 0.01 0.01 0.01 0.01 0.01 0.01 0.01 0.01 0.01 0.01 0.01 0.02 0.02 0.02 0.03 0.03 0.04 0.04 0.03 0.03 0.03 0.02
0.00 0.00 0.00 0.00 0.00 0.01 0.02 0.05 0.06 0.07 0.11 0.09 0.12 0.18 0.11 0.07 0.03 0.02 0.01 0.02 0.02 0.01 0.01 0.02 0.02 0.03 0.03 0.03 0.02 0.02 0.02 0.03 0.02 0.02 0.02 0.02 0.02 0.02 0.02 0.02 0.03 0.04 0.05 0.05 0.04 0.04 0.05 0.06 0.06
0.00 0.00 0.00 0.00 0.00 0.01 0.01 0.03 0.04 0.03 0.03 0.05 0.10 0.15 0.11 0.05 0.05 0.05 0.03 0.03 0.02 0.02 0.02 0.03 0.03 0.05 0.05 0.05 0.05 0.06 0.06 0.07 0.06 0.06 0.07 0.05 0.04 0.03 0.05 0.08 0.13 0.16 0.18 0.20 0.19 0.18 0.20 0.21 0.17
0.00 0.00 0.00 0.00 0.00 0.00 0.00 0.00 0.01 0.01 0.02 0.11 0.20 0.21 0.18 0.10 0.06 0.08 0.08 0.06 0.05 0.04 0.04 0.05 0.05 0.06 0.07 0.08 0.11 0.14 0.14 0.16 0.15 0.16 0.23 0.22 0.21 0.14 0.10 0.27 0.42 0.43 0.51 0.53 0.54 0.68 0.63 0.52 0.33
0.00 0.00 0.00 0.00 0.00 0.00 0.00 0.00 0.00 0.01 0.02 0.07 0.16 0.23 0.18 0.10 0.10 0.11 0.12 0.12 0.09 0.09 0.09 0.10 0.09 0.08 0.11 0.12 0.13 0.17 0.23 0.31 0.37 0.43 0.54 0.65 0.67 0.50 0.33 0.48 0.71 0.76 0.81 0.81 0.98 1.15 0.84 0.71 0.61
0.00 0.00 0.00 0.00 0.00 0.00 0.00 0.00 0.00 0.00 0.01 0.03 0.09 0.22 0.28 0.24 0.22 0.22 0.19 0.18 0.20 0.24 0.24 0.22 0.22 0.20 0.16 0.17 0.18 0.18 0.21 0.30 0.40 0.57 0.69 1.01 1.07 1.01 0.94 0.97 0.89 1.01 1.06 1.28 1.30 1.22 1.02 0.97 0.84
0.00 0.00 0.00 0.00 0.00 0.00 0.00 0.00 0.00 0.00 0.01 0.02 0.04 0.09 0.23 0.28 0.28 0.28 0.25 0.26 0.33 0.52 0.66 0.66 0.63 0.49 0.40 0.37 0.34 0.31 0.32 0.36 0.42 0.63 0.81 1.16 1.33 1.34 1.43 1.16 1.08 1.05 1.24 1.49 1.41 1.19 1.18 1.21 1.20
0.00 0.00 0.00 0.00 0.00 0.00 0.00 0.00 0.00 0.01 0.01 0.01 0.03 0.05 0.10 0.16 0.17 0.20 0.29 0.41 0.64 0.89 1.11 1.14 1.11 0.96 0.85 0.73 0.67 0.69 0.68 0.57 0.53 0.71 0.83 1.24 1.52 1.48 1.35 1.32 1.29 1.21 1.38 1.43 1.47 1.47 1.55 1.53 1.53
0.00 0.00 0.00 0.00 0.00 0.00 0.01 0.01 0.02 0.02 0.02 0.02 0.03 0.04 0.08 0.12 0.17 0.31 0.47 0.72 1.05 1.32 1.48 1.61 1.67 1.51 1.36 1.28 1.15 1.04 0.96 0.87 0.81 0.81 0.84 1.16 1.43 1.49 1.50 1.40 1.28 1.32 1.41 1.46 1.51 1.53 1.57 1.45 1.45
0.00 0.00 0.00 0.01 0.02 0.02 0.02 0.08 0.08 0.07 0.04 0.04 0.05 0.08 0.13 0.18 0.28 0.43 0.59 0.84 1.22 1.61 2.07 2.23 2.09 1.91 1.75 1.57 1.39 1.33 1.32 1.27 1.13 0.93 0.85 0.93 1.11 1.26 1.31 1.21 1.20 1.29 1.20 1.18 1.20 1.17 1.19 1.21 1.30
0.00 0.00 0.01 0.06 0.07 0.04 0.06 0.13 0.16 0.09 0.07 0.09 0.12 0.15 0.22 0.28 0.40 0.57 0.70 0.95 1.34 1.93 2.63 2.71 2.30 2.02 1.83 1.69 1.60 1.55 1.51 1.30 1.17 1.02 0.93 0.85 0.81 0.78 0.81 0.79 0.82 0.90 0.90 0.89 0.86 0.99 1.05 1.08 1.18
0.01 0.03 0.08 0.13 0.11 0.10 0.14 0.20 0.17 0.13 0.16 0.16 0.14 0.17 0.23 0.29 0.40 0.53 0.71 1.06 1.69 2.50 3.10 3.07 2.58 2.18 1.95 1.79 1.61 1.42 1.33 1.19 1.06 0.97 0.87 0.71 0.66 0.61 0.57 0.56 0.57 0.57 0.60 0.66 0.69 0.71 0.80 0.81 0.84
0.02 0.04 0.13 0.16 0.13 0.19 0.18 0.19 0.27 0.38 0.34 0.23 0.17 0.13 0.15 0.22 0.36 0.57 1.00 1.67 2.48 3.20 3.35 2.93 2.49 2.22 1.96 1.64 1.16 0.85 0.74 0.71 0.67 0.57 0.51 0.46 0.42 0.43 0.45 0.41 0.40 0.39 0.39 0.40 0.43 0.50 0.56 0.57 0.64
0.03 0.03 0.11 0.18 0.13 0.13 0.17 0.28 0.44 0.47 0.37 0.22 0.15 0.13 0.18 0.34 0.63 1.15 1.97 2.49 2.51 2.43 2.06 1.67 1.49 1.36 1.09 0.81 0.56 0.45 0.41 0.38 0.36 0.34 0.36 0.34 0.29 0.30 0.30 0.30 0.31 0.31 0.28 0.29 0.31 0.34 0.35 0.38 0.48
0.06 0.05 0.11 0.19 0.10 0.07 0.19 0.46 0.55 0.45 0.37 0.23 0.16 0.16 0.35 0.69 1.14 1.78 2.20 2.09 1.55 1.07 0.88 0.81 0.74 0.54 0.39 0.35 0.31 0.27 0.24 0.25 0.23 0.22 0.24 0.24 0.21 0.22 0.23 0.23 0.24 0.27 0.28 0.28 0.31 0.30 0.29 0.28 0.31
0.05 0.03 0.04 0.06 0.07 0.17 0.34 0.66 0.71 0.47 0.44 0.33 0.27 0.23 0.36 0.59 0.82 1.11 1.24 0.99 0.82 0.71 0.63 0.65 0.57 0.34 0.27 0.23 0.19 0.18 0.17 0.19 0.19 0.19 0.19 0.19 0.17 0.18 0.17 0.17 0.16 0.18 0.23 0.28 0.28 0.32 0.31 0.29 0.23
0.02 0.02 0.02 0.05 0.09 0.17 0.31 0.57 0.67 0.53 0.58 0.42 0.27 0.24 0.28 0.42 0.48 0.45 0.44 0.40 0.39 0.40 0.43 0.51 0.50 0.43 0.34 0.28 0.22 0.20 0.18 0.17 0.18 0.19 0.19 0.20 0.20 0.18 0.18 0.18 0.16 0.15 0.15 0.20 0.22 0.29 0.33 0.33 0.28
0.02 0.03 0.04 0.09 0.14 0.32 0.47 0.60 0.77 0.70 0.74 0.54 0.35 0.25 0.27 0.39 0.42 0.34 0.26 0.22 0.24 0.25 0.27 0.33 0.43 0.52 0.49 0.43 0.35 0.29 0.23 0.21 0.19 0.18 0.19 0.19 0.18 0.18 0.17 0.18 0.18 0.19 0.17 0.15 0.15 0.19 0.26 0.32 0.34
0.04 0.03 0.07 0.30 0.51 0.60 0.46 0.54 0.78 0.62 0.57 0.41 0.21 0.14 0.21 0.36 0.45 0.42 0.31 0.23 0.18 0.17 0.15 0.13 0.15 0.24 0.28 0.28 0.30 0.31 0.30 0.26 0.21 0.18 0.15 0.17 0.16 0.16 0.16 0.16 0.17 0.19 0.19 0.19 0.17 0.15 0.19 0.25 0.30
0.03 0.01 0.04 0.08 0.13 0.24 0.34 0.60 0.76 0.60 0.38 0.17 0.07 0.06 0.15 0.22 0.25 0.25 0.19 0.13 0.08 0.06 0.06 0.04 0.04 0.05 0.07 0.09 0.13 0.18 0.21 0.17 0.15 0.21 0.17 0.17 0.21 0.22 0.21 0.16 0.15 0.16 0.18 0.18 0.18 0.16 0.17 0.20 0.25
0.02 0.01 0.01 0.02 0.04 0.14 0.36 0.59 0.54 0.46 0.31 0.13 0.07 0.05 0.06 0.08 0.09 0.10 0.10 0.08 0.06 0.04 0.03 0.03 0.02 0.02 0.02 0.03 0.05 0.09 0.15 0.15 0.14 0.16 0.17 0.16 0.22 0.23 0.21 0.18 0.15 0.14 0.15 0.17 0.18 0.18 0.19 0.22 0.25
0.02 0.01 0.01 0.02 0.05 0.09 0.22 0.50 0.61 0.47 0.32 0.13 0.08 0.07 0.06 0.08 0.07 0.07 0.06 0.06 0.05 0.04 0.04 0.04 0.03 0.02 0.02 0.02 0.03 0.05 0.12 0.15 0.16 0.15 0.17 0.19 0.18 0.18 0.17 0.16 0.13 0.12 0.13 0.15 0.16 0.18 0.22 0.25 0.31
0.02 0.02 0.02 0.02 0.03 0.05 0.09 0.24 0.25 0.20 0.13 0.09 0.05 0.03 0.04 0.04 0.05 0.04 0.04 0.04 0.04 0.03 0.03 0.03 0.03 0.03 0.02 0.02 0.02 0.02 0.06 0.10 0.14 0.18 0.19 0.20 0.19 0.17 0.15 0.14 0.14 0.12 0.12 0.13 0.16 0.18 0.20 0.24 0.30
0.02 0.02 0.02 0.03 0.03 0.03 0.05 0.15 0.10 0.10 0.09 0.06 0.02 0.01 0.01 0.01 0.01 0.01 0.02 0.02 0.02 0.03 0.03 0.04 0.04 0.03 0.03 0.02 0.02 0.01 0.01 0.03 0.06 0.11 0.14 0.16 0.16 0.15 0.15 0.14 0.13 0.10 0.10 0.13 0.18 0.20 0.21 0.23 0.27